"read_dt","SO2 (ppb)","flags","PMT voltage (V)","lamp voltage (V)","lamp intensity (Hz)","internal temp (C)","react chamber temp (C)","sample flow (l/min)","pres (mmHg)","SO2 bkg (ppb)","SO2 coefficient"
2015-07-01 00:00:00,1658E-3,5C000000,-0723,0824,12420,033.5,045.6,0.464,722.9,01.20,0.508
2015-07-01 00:01:00,1605E-3,5C000000,-0723,0824,12138,033.5,045.6,0.464,722.9,01.20,0.508
2015-07-01 00:02:00,1689E-3,5C000000,-0723,0824,12252,033.5,045.6,0.464,722.9,01.20,0.508
2015-07-01 00:03:00,1831E-3,5C000000,-0723,0823,12296,033.5,045.6,0.464,722.9,01.20,0.508
2015-07-01 00:04:00,1856E-3,5C000000,-0723,0824,12262,033.6,045.6,0.464,722.9,01.20,0.508
2015-07-01 00:05:00,1785E-3,5C000000,-0723,0824,12282,033.6,045.6,0.464,723.0,01.20,0.508
2015-07-01 00:06:00,1726E-3,5C000000,-0723,0823,12267,033.6,045.6,0.464,722.9,01.20,0.508
2015-07-01 00:07:00,1699E-3,5C000000,-0723,0824,11925,033.5,045.6,0.464,722.9,01.20,0.508
2015-07-01 00:08:00,1707E-3,5C000000,-0723,0823,12303,033.6,045.6,0.464,722.9,01.20,0.508
2015-07-01 00:09:00,1696E-3,5C000000,-0723,0823,12335,033.6,045.6,0.464,723.0,01.20,0.508
2015-07-01 00:10:00,1772E-3,5C000000,-0723,0824,12196,033.6,045.6,0.464,722.9,01.20,0.508
2015-07-01 00:11:00,1681E-3,5C000000,-0723,0824,12282,033.6,045.6,0.464,722.9,01.20,0.508
2015-07-01 00:12:00,1778E-3,5C000000,-0723,0823,12136,033.6,045.6,0.464,722.9,01.20,0.508
2015-07-01 00:13:00,1688E-3,5C000000,-0723,0824,12240,033.6,045.6,0.464,722.9,01.20,0.508
2015-07-01 00:14:00,1647E-3,5C000000,-0723,0824,12230,033.6,045.6,0.464,722.9,01.20,0.508
2015-07-01 00:15:00,1852E-3,5C000000,-0723,0824,12185,033.6,045.7,0.464,722.9,01.20,0.508
2015-07-01 00:16:00,1700E-3,5C000000,-0723,0823,12371,033.6,045.6,0.464,722.9,01.20,0.508
2015-07-01 00:17:00,1756E-3,5C000000,-0723,0824,12296,033.6,045.6,0.464,722.8,01.20,0.508
2015-07-01 00:18:00,1817E-3,5C000000,-0723,0823,12287,033.6,045.7,0.464,722.7,01.20,0.508
2015-07-01 00:19:00,1790E-3,5C000000,-0723,0824,12223,033.6,045.7,0.464,722.9,01.20,0.508
2015-07-01 00:20:00,1765E-3,5C000000,-0723,0824,12251,033.6,045.7,0.463,722.9,01.20,0.508
2015-07-01 00:21:00,1550E-3,5C000000,-0723,0824,12256,033.6,045.6,0.464,722.8,01.20,0.508
2015-07-01 00:22:00,1703E-3,5C000000,-0723,0824,12213,033.6,045.6,0.463,722.8,01.20,0.508
2015-07-01 00:23:00,1753E-3,5C000000,-0723,0825,12092,033.6,045.6,0.464,722.9,01.20,0.508
2015-07-01 00:24:00,1690E-3,5C000000,-0723,0823,12250,033.6,045.6,0.464,722.9,01.20,0.508
2015-07-01 00:25:00,1812E-3,5C000000,-0723,0823,12229,033.6,045.6,0.464,722.8,01.20,0.508
2015-07-01 00:26:00,1752E-3,5C000000,-0723,0824,12157,033.7,045.6,0.464,722.8,01.20,0.508
2015-07-01 00:27:00,1705E-3,5C000000,-0723,0823,12211,033.7,045.6,0.464,722.8,01.20,0.508
2015-07-01 00:28:00,1755E-3,5C000000,-0723,0823,12193,033.7,045.6,0.464,722.7,01.20,0.508
2015-07-01 00:29:00,1782E-3,5C000000,-0723,0824,12284,033.7,045.6,0.464,722.7,01.20,0.508
2015-07-01 00:30:00,1822E-3,5C000000,-0723,0824,12347,033.7,045.6,0.464,722.7,01.20,0.508
2015-07-01 00:31:00,1742E-3,5C000000,-0723,0824,12188,033.7,045.6,0.463,722.7,01.20,0.508
2015-07-01 00:32:00,1621E-3,5C000000,-0723,0823,12216,033.7,045.6,0.464,722.7,01.20,0.508
2015-07-01 00:33:00,1761E-3,5C000000,-0723,0824,12281,033.7,045.6,0.463,722.7,01.20,0.508
2015-07-01 00:34:00,1796E-3,5C000000,-0723,0824,12233,033.7,045.7,0.464,722.7,01.20,0.508
2015-07-01 00:35:00,1785E-3,5C000000,-0723,0824,12257,033.7,045.6,0.463,722.7,01.20,0.508
2015-07-01 00:36:00,1603E-3,5C000000,-0723,0824,12172,033.7,045.6,0.464,722.7,01.20,0.508
2015-07-01 00:37:00,1791E-3,5C000000,-0723,0824,12232,033.7,045.6,0.464,722.7,01.20,0.508
2015-07-01 00:38:00,1573E-3,5C000000,-0723,0824,12393,033.7,045.6,0.463,722.6,01.20,0.508
2015-07-01 00:39:00,1653E-3,5C000000,-0723,0824,12165,033.7,045.6,0.464,722.6,01.20,0.508
2015-07-01 00:40:00,1701E-3,5C000000,-0723,0824,12276,033.8,045.6,0.463,722.6,01.20,0.508
2015-07-01 00:41:00,1737E-3,5C000000,-0723,0823,12158,033.7,045.6,0.464,722.5,01.20,0.508
2015-07-01 00:42:00,1636E-3,5C000000,-0723,0824,12275,033.7,045.6,0.463,722.5,01.20,0.508
2015-07-01 00:43:00,1670E-3,5C000000,-0723,0825,12300,033.7,045.6,0.464,722.5,01.20,0.508
2015-07-01 00:44:00,1769E-3,5C000000,-0723,0825,12199,033.7,045.7,0.463,722.4,01.20,0.508
2015-07-01 00:45:00,1644E-3,5C000000,-0723,0824,12194,033.7,045.7,0.463,722.4,01.20,0.508
2015-07-01 00:46:00,1939E-3,5C000000,-0723,0823,12246,033.8,045.6,0.464,722.4,01.20,0.508
2015-07-01 00:47:00,1704E-3,5C000000,-0723,0824,12263,033.7,045.6,0.463,722.4,01.20,0.508
2015-07-01 00:48:00,1609E-3,5C000000,-0723,0824,12268,033.8,045.6,0.464,722.4,01.20,0.508
2015-07-01 00:49:00,1749E-3,5C000000,-0723,0824,12308,033.7,045.7,0.463,722.4,01.20,0.508
2015-07-01 00:50:00,1721E-3,5C000000,-0723,0824,12309,033.8,045.6,0.463,722.4,01.20,0.508
2015-07-01 00:51:00,1697E-3,5C000000,-0723,0824,12292,033.7,045.6,0.464,722.4,01.20,0.508
2015-07-01 00:52:00,1689E-3,5C000000,-0723,0825,12302,033.7,045.7,0.463,722.3,01.20,0.508
2015-07-01 00:53:00,1680E-3,5C000000,-0723,0824,12199,033.8,045.6,0.464,722.3,01.20,0.508
2015-07-01 00:54:00,1702E-3,5C000000,-0723,0824,12277,033.8,045.7,0.463,722.3,01.20,0.508
2015-07-01 00:55:00,1701E-3,5C000000,-0723,0824,12094,033.8,045.6,0.463,722.3,01.20,0.508
2015-07-01 00:56:00,1742E-3,5C000000,-0723,0824,12387,033.8,045.7,0.463,722.3,01.20,0.508
2015-07-01 00:57:00,1810E-3,5C000000,-0723,0825,12253,033.8,045.7,0.463,722.3,01.20,0.508
2015-07-01 00:58:00,1683E-3,5C000000,-0723,0824,12188,033.8,045.6,0.464,722.3,01.20,0.508
2015-07-01 00:59:00,1670E-3,5C000000,-0723,0824,12373,033.8,045.7,0.463,722.3,01.20,0.508
2015-07-01 01:00:00,1727E-3,5C000000,-0723,0824,12239,033.8,045.6,0.463,722.4,01.20,0.508
2015-07-01 01:01:00,1721E-3,5C000000,-0723,0824,12343,033.8,045.6,0.463,722.4,01.20,0.508
2015-07-01 01:02:00,1773E-3,5C000000,-0723,0824,12302,033.8,045.7,0.463,722.4,01.20,0.508
2015-07-01 01:03:00,1758E-3,5C000000,-0723,0825,12323,033.8,045.6,0.464,722.5,01.20,0.508
2015-07-01 01:04:00,1695E-3,5C000000,-0723,0824,12204,033.8,045.6,0.463,722.5,01.20,0.508
2015-07-01 01:05:00,1845E-3,5C000000,-0723,0824,12178,033.8,045.6,0.463,722.5,01.20,0.508
2015-07-01 01:06:00,1639E-3,5C000000,-0723,0824,12222,033.8,045.6,0.463,722.6,01.20,0.508
2015-07-01 01:07:00,1750E-3,5C000000,-0723,0824,12272,033.8,045.6,0.463,722.6,01.20,0.508
2015-07-01 01:08:00,1713E-3,5C000000,-0723,0824,12272,033.9,045.6,0.464,722.7,01.20,0.508
2015-07-01 01:09:00,1682E-3,5C000000,-0723,0824,12290,033.8,045.6,0.463,722.7,01.20,0.508
2015-07-01 01:10:00,1702E-3,5C000000,-0723,0824,11932,033.8,045.6,0.464,722.7,01.20,0.508
2015-07-01 01:11:00,1692E-3,5C000000,-0723,0826,12279,033.9,045.7,0.463,722.7,01.20,0.508
2015-07-01 01:12:00,1639E-3,5C000000,-0723,0824,12167,033.9,045.6,0.464,722.8,01.20,0.508
2015-07-01 01:13:00,1640E-3,5C000000,-0723,0824,12324,033.8,045.7,0.463,722.7,01.20,0.508
2015-07-01 01:14:00,1773E-3,5C000000,-0723,0824,12245,033.9,045.7,0.463,722.7,01.20,0.508
2015-07-01 01:15:00,1746E-3,5C000000,-0723,0823,12214,033.9,045.6,0.463,722.6,01.20,0.508
2015-07-01 01:16:00,1737E-3,5C000000,-0723,0824,12382,033.9,045.6,0.463,722.5,01.20,0.508
2015-07-01 01:17:00,1708E-3,5C000000,-0723,0824,12319,033.8,045.6,0.464,722.5,01.20,0.508
2015-07-01 01:18:00,1656E-3,5C000000,-0723,0825,12338,033.9,045.6,0.463,722.5,01.20,0.508
2015-07-01 01:19:00,1853E-3,5C000000,-0723,0825,12312,033.9,045.7,0.463,722.5,01.20,0.508
2015-07-01 01:20:00,1694E-3,5C000000,-0723,0825,12272,033.9,045.7,0.463,722.4,01.20,0.508
2015-07-01 01:21:00,1779E-3,5C000000,-0723,0824,12065,033.9,045.6,0.463,722.4,01.20,0.508
2015-07-01 01:22:00,1745E-3,5C000000,-0723,0825,12380,033.9,045.7,0.463,722.4,01.20,0.508
2015-07-01 01:23:00,1724E-3,5C000000,-0723,0824,12254,033.9,045.7,0.463,722.4,01.20,0.508
2015-07-01 01:24:00,1685E-3,5C000000,-0723,0824,12219,033.9,045.7,0.463,722.3,01.20,0.508
2015-07-01 01:25:00,1710E-3,5C000000,-0723,0825,12383,033.9,045.7,0.463,722.3,01.20,0.508
2015-07-01 01:26:00,1677E-3,5C000000,-0723,0824,12307,033.9,045.7,0.463,722.3,01.20,0.508
2015-07-01 01:27:00,1589E-3,5C000000,-0723,0825,12308,033.9,045.6,0.463,722.3,01.20,0.508
2015-07-01 01:28:00,1733E-3,5C000000,-0723,0825,12319,033.9,045.6,0.463,722.3,01.20,0.508
2015-07-01 01:29:00,1778E-3,5C000000,-0723,0824,12222,033.9,045.7,0.463,722.3,01.20,0.508
2015-07-01 01:30:00,1683E-3,5C000000,-0723,0825,12280,033.9,045.6,0.463,722.3,01.20,0.508
2015-07-01 01:31:00,1574E-3,5C000000,-0723,0825,12325,033.9,045.6,0.463,722.3,01.20,0.508
2015-07-01 01:32:00,1765E-3,5C000000,-0723,0824,12145,033.9,045.7,0.463,722.3,01.20,0.508
2015-07-01 01:33:00,1687E-3,5C000000,-0723,0825,12279,033.9,045.7,0.463,722.4,01.20,0.508
2015-07-01 01:34:00,1698E-3,5C000000,-0723,0825,12180,033.9,045.6,0.463,722.4,01.20,0.508
2015-07-01 01:35:00,1796E-3,5C000000,-0723,0824,12249,033.9,045.6,0.463,722.4,01.20,0.508
2015-07-01 01:36:00,1706E-3,5C000000,-0723,0825,12409,033.9,045.6,0.463,722.4,01.20,0.508
2015-07-01 01:37:00,1770E-3,5C000000,-0723,0824,12346,033.9,045.7,0.464,722.5,01.20,0.508
2015-07-01 01:38:00,1620E-3,5C000000,-0723,0824,12165,033.9,045.7,0.463,722.5,01.20,0.508
2015-07-01 01:39:00,1638E-3,5C000000,-0723,0823,12156,033.9,045.7,0.463,722.5,01.20,0.508
2015-07-01 01:40:00,1744E-3,5C000000,-0723,0824,12268,033.9,045.7,0.463,722.5,01.20,0.508
2015-07-01 01:41:00,1679E-3,5C000000,-0723,0824,12075,033.9,045.6,0.463,722.6,01.20,0.508
2015-07-01 01:42:00,1748E-3,5C000000,-0723,0824,12156,033.9,045.6,0.463,722.5,01.20,0.508
2015-07-01 01:43:00,1677E-3,5C000000,-0723,0825,12301,033.9,045.6,0.463,722.6,01.20,0.508
2015-07-01 01:44:00,1751E-3,5C000000,-0723,0824,12299,034.0,045.6,0.463,722.5,01.20,0.508
2015-07-01 01:45:00,1823E-3,5C000000,-0723,0824,12199,033.9,045.7,0.463,722.6,01.20,0.508
2015-07-01 01:46:00,1537E-3,5C000000,-0723,0824,12158,033.9,045.7,0.463,722.7,01.20,0.508
2015-07-01 01:47:00,1639E-3,5C000000,-0723,0824,12312,033.9,045.6,0.463,722.7,01.20,0.508
2015-07-01 01:48:00,1766E-3,5C000000,-0723,0824,12217,033.9,045.7,0.464,722.7,01.20,0.508
2015-07-01 01:49:00,1706E-3,5C000000,-0723,0825,12178,033.9,045.7,0.463,722.7,01.20,0.508
2015-07-01 01:50:00,1641E-3,5C000000,-0723,0824,12353,033.9,045.7,0.463,722.7,01.20,0.508
2015-07-01 01:51:00,1591E-3,5C000000,-0723,0824,12109,033.9,045.6,0.463,722.7,01.20,0.508
2015-07-01 01:52:00,1732E-3,5C000000,-0723,0824,12298,034.0,045.6,0.463,722.7,01.20,0.508
2015-07-01 01:53:00,1732E-3,5C000000,-0723,0824,12312,033.9,045.7,0.463,722.7,01.20,0.508
2015-07-01 01:54:00,1688E-3,5C000000,-0723,0824,12249,033.9,045.7,0.463,722.7,01.20,0.508
2015-07-01 01:55:00,1700E-3,5C000000,-0723,0825,12305,034.0,045.7,0.463,722.7,01.20,0.508
2015-07-01 01:56:00,1708E-3,5C000000,-0723,0825,12273,034.0,045.6,0.463,722.7,01.20,0.508
2015-07-01 01:57:00,1817E-3,5C000000,-0723,0824,12318,033.9,045.6,0.463,722.6,01.20,0.508
2015-07-01 01:58:00,1673E-3,5C000000,-0723,0824,12120,034.0,045.6,0.463,722.6,01.20,0.508
2015-07-01 01:59:00,1608E-3,5C000000,-0723,0825,12257,034.0,045.6,0.463,722.6,01.20,0.508
2015-07-01 02:00:00,1798E-3,5C000000,-0723,0824,12259,034.0,045.7,0.463,722.6,01.20,0.508
2015-07-01 02:01:00,1692E-3,5C000000,-0723,0824,12291,033.9,045.7,0.463,722.5,01.20,0.508
2015-07-01 02:02:00,1598E-3,5C000000,-0723,0824,12328,034.0,045.7,0.463,722.5,01.20,0.508
2015-07-01 02:03:00,1639E-3,5C000000,-0723,0825,12289,034.0,045.7,0.463,722.5,01.20,0.508
2015-07-01 02:04:00,1586E-3,5C000000,-0723,0825,12308,034.0,045.7,0.463,722.6,01.20,0.508
2015-07-01 02:05:00,1770E-3,5C000000,-0723,0825,12303,034.0,045.7,0.464,722.6,01.20,0.508
2015-07-01 02:06:00,1701E-3,5C000000,-0723,0824,11971,034.0,045.7,0.463,722.5,01.20,0.508
2015-07-01 02:07:00,1662E-3,5C000000,-0723,0824,12272,034.0,045.7,0.463,722.5,01.20,0.508
2015-07-01 02:08:00,1648E-3,5C000000,-0723,0824,12187,034.0,045.7,0.463,722.5,01.20,0.508
2015-07-01 02:09:00,1730E-3,5C000000,-0723,0824,12211,034.0,045.6,0.463,722.5,01.20,0.508
2015-07-01 02:10:00,1635E-3,5C000000,-0723,0824,12180,034.0,045.6,0.463,722.5,01.20,0.508
2015-07-01 02:11:00,1797E-3,5C000000,-0723,0825,12256,034.0,045.7,0.463,722.6,01.20,0.508
2015-07-01 02:12:00,1637E-3,5C000000,-0723,0825,12114,034.0,045.7,0.463,722.6,01.20,0.508
2015-07-01 02:13:00,1732E-3,5C000000,-0723,0824,12221,034.0,045.6,0.463,722.6,01.20,0.508
2015-07-01 02:14:00,1721E-3,5C000000,-0723,0824,12264,034.0,045.6,0.463,722.6,01.20,0.508
2015-07-01 02:15:00,1692E-3,5C000000,-0723,0824,12280,034.0,045.7,0.463,722.6,01.20,0.508
2015-07-01 02:16:00,1689E-3,5C000000,-0723,0824,12147,034.0,045.7,0.463,722.5,01.20,0.508
2015-07-01 02:17:00,1730E-3,5C000000,-0723,0825,12211,034.0,045.7,0.463,722.5,01.20,0.508
2015-07-01 02:18:00,1852E-3,5C000000,-0723,0824,12215,034.0,045.7,0.463,722.5,01.20,0.508
2015-07-01 02:19:00,1694E-3,5C000000,-0723,0825,12342,034.0,045.7,0.463,722.5,01.20,0.508
2015-07-01 02:20:00,1741E-3,5C000000,-0723,0824,12284,034.0,045.7,0.463,722.5,01.20,0.508
2015-07-01 02:21:00,1651E-3,5C000000,-0723,0824,12214,034.0,045.7,0.463,722.5,01.20,0.508
2015-07-01 02:22:00,1860E-3,5C000000,-0723,0824,12182,034.0,045.7,0.463,722.4,01.20,0.508
2015-07-01 02:23:00,1825E-3,5C000000,-0723,0824,12223,034.0,045.7,0.463,722.4,01.20,0.508
2015-07-01 02:24:00,1676E-3,5C000000,-0723,0824,12241,034.0,045.7,0.463,722.4,01.20,0.508
2015-07-01 02:25:00,1893E-3,5C000000,-0723,0824,12268,034.0,045.7,0.463,722.3,01.20,0.508
2015-07-01 02:26:00,1594E-3,5C000000,-0723,0825,12180,034.0,045.7,0.463,722.3,01.20,0.508
2015-07-01 02:27:00,1767E-3,5C000000,-0723,0824,12346,034.0,045.7,0.463,722.3,01.20,0.508
2015-07-01 02:28:00,1692E-3,5C000000,-0723,0825,12260,034.0,045.7,0.463,722.3,01.20,0.508
2015-07-01 02:29:00,1796E-3,5C000000,-0723,0825,12395,034.0,045.7,0.463,722.3,01.20,0.508
2015-07-01 02:30:00,1689E-3,5C000000,-0723,0823,12224,034.0,045.7,0.463,722.3,01.20,0.508
2015-07-01 02:31:00,1738E-3,5C000000,-0723,0824,12321,034.0,045.7,0.463,722.3,01.20,0.508
2015-07-01 02:32:00,1577E-3,5C000000,-0723,0825,12112,034.0,045.7,0.463,722.3,01.20,0.508
2015-07-01 02:33:00,1637E-3,5C000000,-0723,0824,12301,034.0,045.6,0.463,722.3,01.20,0.508
2015-07-01 02:34:00,1650E-3,5C000000,-0723,0825,12175,034.0,045.7,0.463,722.3,01.20,0.508
2015-07-01 02:35:00,1761E-3,5C000000,-0723,0824,12200,034.0,045.7,0.463,722.3,01.20,0.508
2015-07-01 02:36:00,1713E-3,5C000000,-0723,0823,12258,034.0,045.7,0.463,722.3,01.20,0.508
2015-07-01 02:37:00,1689E-3,5C000000,-0723,0824,12279,034.0,045.6,0.463,722.3,01.20,0.508
2015-07-01 02:38:00,1601E-3,5C000000,-0723,0824,12131,034.0,045.7,0.463,722.3,01.20,0.508
2015-07-01 02:39:00,1729E-3,5C000000,-0723,0824,12213,034.0,045.7,0.463,722.3,01.20,0.508
2015-07-01 02:40:00,1650E-3,5C000000,-0723,0823,12218,034.0,045.7,0.463,722.3,01.20,0.508
2015-07-01 02:41:00,1734E-3,5C000000,-0723,0824,12199,034.0,045.7,0.463,722.2,01.20,0.508
2015-07-01 02:42:00,1782E-3,5C000000,-0723,0824,12347,034.0,045.6,0.463,722.2,01.20,0.508
2015-07-01 02:43:00,1654E-3,5C000000,-0723,0824,12219,034.0,045.7,0.463,722.3,01.20,0.508
2015-07-01 02:44:00,1692E-3,5C000000,-0723,0824,12245,034.0,045.7,0.463,722.2,01.20,0.508
2015-07-01 02:45:00,1750E-3,5C000000,-0723,0824,12262,034.0,045.7,0.463,722.3,01.20,0.508
2015-07-01 02:46:00,1635E-3,5C000000,-0723,0825,12159,034.0,045.7,0.463,722.2,01.20,0.508
2015-07-01 02:47:00,1719E-3,5C000000,-0723,0824,12219,034.0,045.7,0.463,722.2,01.20,0.508
2015-07-01 02:48:00,1530E-3,5C000000,-0723,0824,12219,034.0,045.7,0.463,722.3,01.20,0.508
2015-07-01 02:49:00,1693E-3,5C000000,-0723,0824,12218,034.1,045.7,0.463,722.3,01.20,0.508
2015-07-01 02:50:00,1684E-3,5C000000,-0723,0824,12303,034.1,045.6,0.463,722.3,01.20,0.508
2015-07-01 02:51:00,1815E-3,5C000000,-0723,0823,12212,034.0,045.7,0.463,722.3,01.20,0.508
2015-07-01 02:52:00,1622E-3,5C000000,-0723,0823,12331,034.0,045.6,0.463,722.3,01.20,0.508
2015-07-01 02:53:00,1758E-3,5C000000,-0723,0823,12239,034.1,045.7,0.463,722.3,01.20,0.508
2015-07-01 02:54:00,1725E-3,5C000000,-0723,0824,12254,034.1,045.7,0.463,722.2,01.20,0.508
2015-07-01 02:55:00,1775E-3,5C000000,-0723,0823,12157,034.1,045.7,0.463,722.2,01.20,0.508
2015-07-01 02:56:00,1610E-3,5C000000,-0723,0823,12203,034.1,045.6,0.463,722.2,01.20,0.508
2015-07-01 02:57:00,1836E-3,5C000000,-0723,0824,12371,034.1,045.6,0.463,722.2,01.20,0.508
2015-07-01 02:58:00,1621E-3,5C000000,-0723,0824,12331,034.1,045.7,0.463,722.2,01.20,0.508
2015-07-01 02:59:00,1779E-3,5C000000,-0723,0824,12273,034.1,045.7,0.463,722.2,01.20,0.508
2015-07-01 03:00:00,1640E-3,5C000000,-0723,0824,12438,034.1,045.7,0.463,722.2,01.20,0.508
2015-07-01 03:01:00,1749E-3,5C000000,-0723,0824,12301,034.1,045.6,0.463,722.2,01.20,0.508
2015-07-01 03:02:00,1554E-3,5C000000,-0723,0822,12505,034.1,045.7,0.463,722.2,01.20,0.508
2015-07-01 03:03:00,1828E-3,5C000000,-0723,0824,12328,034.1,045.7,0.463,722.2,01.20,0.508
2015-07-01 03:04:00,1807E-3,5C000000,-0723,0825,12165,034.1,045.7,0.463,722.2,01.20,0.508
2015-07-01 03:05:00,1824E-3,5C000000,-0723,0823,12388,034.1,045.7,0.463,722.2,01.20,0.508
2015-07-01 03:06:00,1725E-3,5C000000,-0723,0823,12088,034.1,045.7,0.463,722.3,01.20,0.508
2015-07-01 03:07:00,1742E-3,5C000000,-0723,0823,12288,034.1,045.7,0.463,722.3,01.20,0.508
2015-07-01 03:08:00,1823E-3,5C000000,-0723,0824,12296,034.1,045.7,0.463,722.3,01.20,0.508
2015-07-01 03:09:00,1726E-3,5C000000,-0723,0823,12066,034.1,045.7,0.463,722.3,01.20,0.508
2015-07-01 03:10:00,1767E-3,5C000000,-0723,0824,12098,034.1,045.7,0.463,722.3,01.20,0.508
2015-07-01 03:11:00,1621E-3,5C000000,-0723,0824,12319,034.1,045.6,0.463,722.3,01.20,0.508
2015-07-01 03:12:00,1723E-3,5C000000,-0723,0824,12236,034.1,045.7,0.463,722.3,01.20,0.508
2015-07-01 03:13:00,1656E-3,5C000000,-0723,0822,12301,034.1,045.7,0.463,722.3,01.20,0.508
2015-07-01 03:14:00,1840E-3,5C000000,-0723,0823,12229,034.1,045.7,0.463,722.3,01.20,0.508
2015-07-01 03:15:00,1711E-3,5C000000,-0723,0824,12283,034.1,045.7,0.463,722.3,01.20,0.508
2015-07-01 03:16:00,1603E-3,5C000000,-0723,0824,12350,034.2,045.7,0.463,722.3,01.20,0.508
2015-07-01 03:17:00,1693E-3,5C000000,-0723,0823,12330,034.1,045.7,0.463,722.4,01.20,0.508
2015-07-01 03:18:00,1726E-3,5C000000,-0723,0823,12265,034.2,045.6,0.463,722.4,01.20,0.508
2015-07-01 03:19:00,1856E-3,5C000000,-0723,0823,12187,034.1,045.7,0.463,722.4,01.20,0.508
2015-07-01 03:20:00,1736E-3,5C000000,-0723,0824,12180,034.1,045.7,0.463,722.4,01.20,0.508
2015-07-01 03:21:00,1658E-3,5C000000,-0723,0823,12284,034.1,045.7,0.463,722.4,01.20,0.508
2015-07-01 03:22:00,1833E-3,5C000000,-0723,0823,12391,034.1,045.7,0.463,722.4,01.20,0.508
2015-07-01 03:23:00,1655E-3,5C000000,-0723,0823,12327,034.1,045.7,0.463,722.4,01.20,0.508
2015-07-01 03:24:00,1642E-3,5C000000,-0723,0824,12334,034.1,045.7,0.463,722.4,01.20,0.508
2015-07-01 03:25:00,1710E-3,5C000000,-0723,0823,12381,034.2,045.7,0.463,722.4,01.20,0.508
2015-07-01 03:26:00,1724E-3,5C000000,-0723,0824,12141,034.2,045.6,0.463,722.4,01.20,0.508
2015-07-01 03:27:00,1584E-3,5C000000,-0723,0823,12258,034.1,045.7,0.463,722.5,01.20,0.508
2015-07-01 03:28:00,1597E-3,5C000000,-0723,0824,12221,034.2,045.7,0.463,722.4,01.20,0.508
2015-07-01 03:29:00,1656E-3,5C000000,-0723,0824,12244,034.1,045.7,0.463,722.5,01.20,0.508
2015-07-01 03:30:00,1747E-3,5C000000,-0723,0824,12171,034.1,045.7,0.463,722.5,01.20,0.508
2015-07-01 03:31:00,1731E-3,5C000000,-0723,0824,12227,034.1,045.7,0.463,722.5,01.20,0.508
2015-07-01 03:32:00,1652E-3,5C000000,-0723,0825,12412,034.1,045.7,0.463,722.6,01.20,0.508
2015-07-01 03:33:00,1798E-3,5C000000,-0723,0824,12217,034.1,045.7,0.463,722.7,01.20,0.508
2015-07-01 03:34:00,1781E-3,5C000000,-0723,0824,12250,034.2,045.6,0.463,722.7,01.20,0.508
2015-07-01 03:35:00,1576E-3,5C000000,-0723,0824,12283,034.2,045.7,0.463,722.7,01.20,0.508
2015-07-01 03:36:00,1814E-3,5C000000,-0723,0824,12236,034.2,045.7,0.463,722.7,01.20,0.508
2015-07-01 03:37:00,1616E-3,5C000000,-0723,0824,12280,034.2,045.7,0.463,722.7,01.20,0.508
2015-07-01 03:38:00,1785E-3,5C000000,-0723,0823,12245,034.2,045.7,0.463,722.7,01.20,0.508
2015-07-01 03:39:00,1694E-3,5C000000,-0723,0824,12365,034.2,045.7,0.463,722.7,01.20,0.508
2015-07-01 03:40:00,1804E-3,5C000000,-0723,0825,12222,034.1,045.7,0.463,722.7,01.20,0.508
2015-07-01 03:41:00,1660E-3,5C000000,-0723,0825,12375,034.2,045.7,0.463,722.8,01.20,0.508
2015-07-01 03:42:00,1724E-3,5C000000,-0723,0825,12165,034.2,045.7,0.463,722.7,01.20,0.508
2015-07-01 03:43:00,1661E-3,5C000000,-0723,0825,12240,034.2,045.7,0.463,722.8,01.20,0.508
2015-07-01 03:44:00,1703E-3,5C000000,-0723,0825,12128,034.2,045.7,0.463,722.8,01.20,0.508
2015-07-01 03:45:00,1792E-3,5C000000,-0723,0824,12174,034.1,045.7,0.463,722.8,01.20,0.508
2015-07-01 03:46:00,1719E-3,5C000000,-0723,0824,12270,034.1,045.6,0.463,722.7,01.20,0.508
2015-07-01 03:47:00,1625E-3,5C000000,-0723,0823,12220,034.2,045.7,0.463,722.7,01.20,0.508
2015-07-01 03:48:00,1820E-3,5C000000,-0723,0824,12227,034.2,045.7,0.463,722.8,01.20,0.508
2015-07-01 03:49:00,1570E-3,5C000000,-0723,0824,12322,034.2,045.7,0.463,722.8,01.20,0.508
2015-07-01 03:50:00,1662E-3,5C000000,-0723,0824,12457,034.2,045.7,0.463,722.7,01.20,0.508
2015-07-01 03:51:00,1710E-3,5C000000,-0723,0824,12263,034.1,045.7,0.463,722.8,01.20,0.508
2015-07-01 03:52:00,1510E-3,5C000000,-0723,0824,12112,034.1,045.7,0.463,722.8,01.20,0.508
2015-07-01 03:53:00,1580E-3,5C000000,-0723,0824,12322,034.2,045.7,0.463,722.8,01.20,0.508
2015-07-01 03:54:00,1635E-3,5C000000,-0723,0825,12260,034.2,045.6,0.463,722.8,01.20,0.508
2015-07-01 03:55:00,1709E-3,5C000000,-0723,0825,12040,034.2,045.7,0.463,722.8,01.20,0.508
2015-07-01 03:56:00,1818E-3,5C000000,-0723,0824,12188,034.2,045.7,0.463,722.8,01.20,0.508
2015-07-01 03:57:00,1746E-3,5C000000,-0723,0823,12223,034.2,045.7,0.463,722.7,01.20,0.508
2015-07-01 03:58:00,1660E-3,5C000000,-0723,0825,12292,034.2,045.7,0.463,722.7,01.20,0.508
2015-07-01 03:59:00,1647E-3,5C000000,-0723,0823,12224,034.2,045.7,0.463,722.7,01.20,0.508
2015-07-01 04:00:00,1844E-3,5C000000,-0723,0824,12185,034.2,045.7,0.463,722.6,01.20,0.508
2015-07-01 04:01:00,1749E-3,5C000000,-0723,0824,12334,034.2,045.7,0.463,722.6,01.20,0.508
2015-07-01 04:02:00,1643E-3,5C000000,-0723,0823,12285,034.2,045.7,0.463,722.6,01.20,0.508
2015-07-01 04:03:00,1718E-3,5C000000,-0723,0824,12171,034.2,045.7,0.463,722.6,01.20,0.508
2015-07-01 04:04:00,1626E-3,5C000000,-0723,0825,12315,034.2,045.7,0.463,722.7,01.20,0.508
2015-07-01 04:05:00,1752E-3,5C000000,-0723,0823,12102,034.2,045.7,0.463,722.7,01.20,0.508
2015-07-01 04:06:00,1768E-3,5C000000,-0723,0823,12232,034.2,045.7,0.463,722.6,01.20,0.508
2015-07-01 04:07:00,1645E-3,5C000000,-0723,0824,12306,034.2,045.6,0.463,722.6,01.20,0.508
2015-07-01 04:08:00,1804E-3,5C000000,-0723,0824,12314,034.2,045.6,0.463,722.6,01.20,0.508
2015-07-01 04:09:00,1719E-3,5C000000,-0723,0823,12235,034.2,045.7,0.463,722.7,01.20,0.508
2015-07-01 04:10:00,1836E-3,5C000000,-0723,0823,12320,034.2,045.6,0.463,722.7,01.20,0.508
2015-07-01 04:11:00,1740E-3,5C000000,-0723,0823,12269,034.2,045.7,0.463,722.6,01.20,0.508
2015-07-01 04:12:00,1766E-3,5C000000,-0723,0822,12288,034.2,045.7,0.463,722.6,01.20,0.508
2015-07-01 04:13:00,1773E-3,5C000000,-0723,0824,12216,034.2,045.7,0.462,722.5,01.20,0.508
2015-07-01 04:14:00,1758E-3,5C000000,-0723,0823,12132,034.2,045.7,0.463,722.6,01.20,0.508
2015-07-01 04:15:00,1651E-3,5C000000,-0723,0823,12294,034.2,045.7,0.463,722.4,01.20,0.508
2015-07-01 04:16:00,1764E-3,5C000000,-0723,0823,12246,034.2,045.7,0.463,722.4,01.20,0.508
2015-07-01 04:17:00,1661E-3,5C000000,-0723,0823,12235,034.2,045.7,0.462,722.4,01.20,0.508
2015-07-01 04:18:00,1713E-3,5C000000,-0723,0824,12176,034.2,045.7,0.463,722.5,01.20,0.508
2015-07-01 04:19:00,1694E-3,5C000000,-0723,0824,12347,034.2,045.7,0.463,722.4,01.20,0.508
2015-07-01 04:20:00,1545E-3,5C000000,-0723,0824,12479,034.2,045.7,0.463,722.4,01.20,0.508